This is the latest recevied weather packets stored in our database for station/object KF4WSW-13. If no packets are shown the sender has not sent any weather packets the latest 10 day(s).
| Time | Temp. | Humidity | Pressure | Rain* | Wind** | Luminosity | Snow |
|---|---|---|---|---|---|---|---|
| 1777894958 | 18.89° C | 79% | 1014.8 hPa | 0 mm | - | 69 W/m² | - |
| 1777894655 | 18.89° C | 80% | 1014.6 hPa | 0 mm | - | 59 W/m² | - |
| 1777894352 | 18.89° C | 79% | 1014.5 hPa | 0 mm | - | 48 W/m² | - |
| 1777894050 | 18.33° C | 80% | 1014.6 hPa | 0 mm | - | 40 W/m² | - |
| 1777893746 | 18.33° C | 80% | 1014.7 hPa | 0 mm | - | 32 W/m² | - |
| 1777893443 | 18.33° C | 81% | 1014.3 hPa | 0 mm | - | 25 W/m² | - |
| 1777893139 | 18.33° C | 82% | 1014.5 hPa | 0 mm | - | 20 W/m² | - |
| 1777892836 | 17.78° C | 82% | 1014.4 hPa | 0 mm | - | 15 W/m² | - |
| 1777892532 | 17.78° C | 83% | 1014.5 hPa | 0 mm | - | 10 W/m² | - |
| 1777892228 | 17.78° C | 83% | 1014.3 hPa | 0 mm | - | 7 W/m² | - |
| 1777891924 | 17.78° C | 83% | 1014.4 hPa | 0 mm | - | 4 W/m² | - |
| 1777891622 | 17.78° C | 83% | 1014.4 hPa | 0 mm | - | 2 W/m² | - |
| 1777891318 | 18.33° C | 84% | 1014.2 hPa | 0 mm | - | 1 W/m² | - |
| 1777891013 | 17.78° C | 83% | 1014.2 hPa | 0 mm | - | 0 W/m² | - |
| 1777890707 | 17.78° C | 84% | 1014.1 hPa | 0 mm | - | 0 W/m² | - |
| 1777890404 | 17.78° C | 83% | 1014.4 hPa | 0 mm | - | 0 W/m² | - |
| 1777890099 | 17.78° C | 84% | 1014.1 hPa | 0 mm | - | 0 W/m² | - |
| 1777889797 | 17.78° C | 85% | 1014.1 hPa | 0 mm | - | 0 W/m² | - |
| 1777889495 | 18.33° C | 84% | 1014.1 hPa | 0 mm | - | 0 W/m² | - |
| 1777889192 | 17.78° C | 83% | 1014.1 hPa | 0 mm | - | 0 W/m² | - |
| 1777888890 | 17.78° C | 84% | 1014.3 hPa | 0 mm | - | 0 W/m² | - |
| 1777888586 | 17.78° C | 84% | 1014.5 hPa | 0 mm | - | 0 W/m² | - |
| 1777888282 | 17.78° C | 84% | 1014.2 hPa | 0 mm | - | 0 W/m² | - |
| 1777887979 | 17.78° C | 83% | 1014.3 hPa | 0 mm | - | 0 W/m² | - |
| 1777887676 | 17.78° C | 84% | 1014.3 hPa | 0 mm | - | 0 W/m² | - |
* Rain latest hour (hover to see other rain measurements)
** Current wind speed in m/s (hover to see current wind gust speed)